CST,Max TemperatureF,Mean TemperatureF,Min TemperatureF,Max Dew PointF,MeanDew PointF,Min DewpointF,Max Humidity, Mean Humidity, Min Humidity, Max Sea Level PressureIn, Mean Sea Level PressureIn, Min Sea Level PressureIn, Max VisibilityMiles, Mean VisibilityMiles, Min VisibilityMiles, Max Wind SpeedMPH, Mean Wind SpeedMPH, Max Gust SpeedMPH,PrecipitationIn, CloudCover, Events, WindDirDegrees
2013-1-1,12,6,1,3,1,0,92,78,62,30.22,30.15,30.11,10,10,10,12,6,,0.00,0,,284
2013-1-2,24,15,6,21,11,1,92,76,50,30.14,30.09,30.04,10,10,10,9,4,,0.00,7,Snow,219
2013-1-3,23,18,12,21,16,9,93,86,80,30.20,30.12,30.03,10,8,4,17,11,23,0.00,5,Snow,257
2013-1-4,26,18,10,18,14,5,92,78,64,30.18,30.13,30.05,10,10,10,18,12,20,0.00,0,,244
2013-1-5,33,22,12,32,24,12,100,92,70,30.21,30.04,29.86,10,7,1,14,6,20,0.00,4,Rain-Snow,220
2013-1-6,32,24,17,32,22,14,100,89,74,30.28,30.07,29.85,10,9,4,20,10,24,0.00,4,Snow,255
2013-1-7,35,24,14,27,19,12,100,85,60,30.27,30.15,30.03,10,9,5,17,5,32,0.00,1,,206
2013-1-8,68,46,24,30,27,23,93,81,23,30.11,30.03,29.94,10,8,5,17,9,25,0.00,3,,194
2013-1-9,37,32,26,30,26,21,93,76,60,30.45,30.18,29.91,10,10,10,21,13,34,0.00,0,,246
2013-1-10,37,27,17,34,27,18,100,90,70,30.50,30.23,29.90,10,7,2,14,6,17,0.28,5,Rain,116
2013-1-11,50,40,33,46,40,34,100,97,82,29.89,29.71,29.63,10,5,0,14,8,22,0.02,6,Fog-Rain,168
2013-1-12,50,37,24,45,32,19,93,81,69,29.99,29.81,29.64,10,9,2,23,14,32,0.01,4,Snow,243
2013-1-13,23,18,12,21,12,5,93,80,73,30.18,30.03,29.88,10,9,4,18,12,25,0.03,8,Snow,288
2013-1-14,23,16,8,10,7,3,86,73,50,30.42,30.35,30.19,10,10,10,16,9,21,0.00,1,,258
2013-1-15,28,18,8,16,12,7,92,77,51,30.40,30.26,30.07,10,10,10,8,4,,0.00,0,,220
2013-1-16,32,24,15,28,19,9,93,79,55,30.07,29.94,29.75,10,10,10,23,8,34,0.00,4,,236
2013-1-17,26,19,12,18,9,1,85,65,46,30.37,30.26,30.05,10,10,10,17,10,18,0.00,0,,297
2013-1-18,39,24,10,30,20,9,92,80,65,30.40,30.09,29.82,10,10,10,23,6,44,0.00,3,,193
2013-1-19,41,29,15,32,24,5,87,70,35,29.89,29.77,29.65,10,10,10,40,15,51,0.00,4,,237
2013-1-20,14,10,5,3,-1,-4,67,63,53,30.27,30.14,29.91,10,10,10,34,20,46,0.00,4,,281
2013-1-21,8,2,-4,5,-6,-13,85,70,60,30.24,30.16,30.08,10,9,2,23,12,34,0.00,5,Snow,295
2013-1-22,3,-2,-7,-6,-10,-17,78,68,56,30.33,30.28,30.24,10,10,3,17,12,26,0.00,2,,290
2013-1-23,24,12,1,12,1,-6,86,71,31,30.36,30.21,30.05,10,8,1,18,7,30,0.00,5,Snow,269
2013-1-24,17,8,0,9,0,-8,78,66,53,30.62,30.45,30.34,10,10,10,15,9,22,0.00,4,,289
2013-1-25,21,18,14,18,10,3,86,74,53,30.32,30.11,29.93,10,8,2,13,8,17,0.00,7,Snow,222
2013-1-26,23,14,5,12,8,1,86,72,54,30.36,30.29,30.16,10,10,10,13,9,17,0.00,3,,251
2013-1-27,32,26,21,32,22,12,100,85,63,30.33,30.14,29.87,10,6,0,18,9,20,0.00,7,Snow,143
2013-1-28,39,34,30,37,33,28,100,95,75,29.95,29.86,29.78,10,6,0,12,6,20,0.01,7,,151
2013-1-29,57,45,33,55,40,34,100,100,94,29.84,29.60,29.45,10,4,0,15,7,22,0.40,8,Fog-Rain,11
2013-1-30,33,24,14,34,24,10,100,93,79,29.56,29.41,29.26,10,6,0,24,12,33,0.04,8,Rain-Snow,334
2013-1-31,15,8,1,12,3,-4,92,78,67,30.09,29.83,29.57,10,9,2,22,17,30,0.00,6,Snow,283